TUI88V EDDL-LGRX

Flight info

Callsign TUI88V
Flight time N/A
Altitude 37000
Route DODEN1T DODEN Y853 BOMBI T104 WLD M867 RADIZ DCT EVAXI DCT ROPUS DCT SABAD DCT GISER L862 AIOSA DCT NOSTO UL612 ORTOS
Aircraft B38M/M-SDE1FGHILORVWXY/HB1

Departure

Time 2026-05-01 13:30
Airport Düsseldorf Airport (EDDL)

Arrival

Time N/A
Airport Patras Araxos Agamemnon Airport (LGRX)
Time Latitude Longitude Altitude Speed Heading
2026-05-01 13:12 51.27911 6.76257 131 ft 0 kts 61°
2026-05-01 13:13 51.27911 6.76256 131 ft 0 kts 61°
2026-05-01 13:17 51.27899 6.76223 125 ft 2 kts 61°
2026-05-01 13:17 51.27891 6.76200 125 ft 2 kts 61°
2026-05-01 13:18 51.27875 6.76153 125 ft 2 kts 60°
2026-05-01 13:18 51.27867 6.76130 125 ft 2 kts 59°
2026-05-01 13:18 51.27858 6.76108 126 ft 2 kts 53°
2026-05-01 13:18 51.27847 6.76089 125 ft 2 kts 40°
2026-05-01 13:19 51.27834 6.76072 125 ft 2 kts 34°
2026-05-01 13:19 51.27820 6.76058 128 ft 2 kts 29°
2026-05-01 13:19 51.27789 6.76043 128 ft 2 kts
2026-05-01 13:20 51.27772 6.76043 131 ft 2 kts
2026-05-01 13:20 51.27764 6.76042 132 ft 0 kts
2026-05-01 13:22 51.27787 6.76043 128 ft 5 kts
2026-05-01 13:22 51.27836 6.76045 131 ft 8 kts
2026-05-01 13:23 51.27900 6.76048 131 ft 11 kts
2026-05-01 13:23 51.27977 6.76047 131 ft 11 kts 358°
2026-05-01 13:23 51.28050 6.76049 130 ft 9 kts
2026-05-01 13:23 51.28100 6.76027 130 ft 6 kts 338°
2026-05-01 13:24 51.28139 6.76044 132 ft 7 kts 45°
2026-05-01 13:24 51.28175 6.76118 131 ft 10 kts 53°
2026-05-01 13:24 51.28221 6.76215 128 ft 12 kts 53°
2026-05-01 13:25 51.28353 6.76490 125 ft 18 kts 53°
2026-05-01 13:25 51.28433 6.76659 125 ft 20 kts 52°
2026-05-01 13:25 51.28520 6.76840 126 ft 21 kts 53°
2026-05-01 13:25 51.28609 6.77025 132 ft 21 kts 52°
2026-05-01 13:26 51.28701 6.77222 132 ft 23 kts 52°
2026-05-01 13:26 51.28801 6.77431 132 ft 24 kts 52°
2026-05-01 13:26 51.28907 6.77653 132 ft 26 kts 52°
2026-05-01 13:26 51.29018 6.77885 132 ft 27 kts 53°
2026-05-01 13:27 51.29132 6.78125 136 ft 26 kts 53°
2026-05-01 13:27 51.29227 6.78325 143 ft 20 kts 53°
2026-05-01 13:27 51.29344 6.78556 154 ft 8 kts 33°
2026-05-01 13:28 51.29459 6.78566 155 ft 10 kts 356°
2026-05-01 13:28 51.29518 6.78522 154 ft 9 kts 296°
2026-05-01 13:29 51.29504 6.78437 152 ft 0 kts 233°
2026-05-01 13:29 51.29372 6.78163 145 ft 64 kts 232°
2026-05-01 13:30 51.26619 6.72350 1786 ft 207 kts 229°
2026-05-01 13:31 51.24761 6.68351 2763 ft 243 kts 230°
2026-05-01 13:31 51.20711 6.63938 5178 ft 245 kts 177°
2026-05-01 13:32 51.17671 6.66414 6703 ft 259 kts 128°
2026-05-01 13:33 51.16856 6.75148 8826 ft 279 kts 97°
2026-05-01 13:33 51.16683 6.81389 10300 ft 286 kts 95°
2026-05-01 13:34 51.16547 6.87972 11187 ft 314 kts 94°
2026-05-01 13:34 51.16413 6.95192 12302 ft 330 kts 94°
2026-05-01 13:35 51.16309 7.02564 13832 ft 336 kts 94°
2026-05-01 13:35 51.16259 7.06312 14546 ft 340 kts 94°
2026-05-01 13:35 51.16155 7.13914 15958 ft 347 kts 94°
2026-05-01 13:36 51.15789 7.17638 16618 ft 347 kts 110°
2026-05-01 13:36 51.14655 7.21019 17239 ft 349 kts 129°
2026-05-01 13:36 51.11139 7.26462 18499 ft 356 kts 137°
2026-05-01 13:37 51.09324 7.29165 19035 ft 360 kts 137°
2026-05-01 13:37 51.07498 7.31901 19563 ft 363 kts 136°
2026-05-01 13:37 51.05651 7.34673 20077 ft 366 kts 136°
2026-05-01 13:37 51.03791 7.37468 20601 ft 370 kts 136°
2026-05-01 13:38 51.00009 7.43128 21639 ft 377 kts 136°
2026-05-01 13:38 50.98093 7.45993 22155 ft 380 kts 136°
2026-05-01 13:38 50.96157 7.48886 22679 ft 384 kts 136°
2026-05-01 13:39 50.94200 7.51806 23178 ft 388 kts 136°
2026-05-01 13:39 50.92225 7.54751 23666 ft 392 kts 136°
2026-05-01 13:39 50.90253 7.57684 24105 ft 396 kts 135°
2026-05-01 13:39 50.88237 7.60682 24548 ft 399 kts 136°
2026-05-01 13:40 50.86178 7.63740 24991 ft 402 kts 136°
2026-05-01 13:40 50.84131 7.66772 25410 ft 405 kts 136°
2026-05-01 13:40 50.82092 7.69791 25826 ft 408 kts 135°
2026-05-01 13:40 50.80011 7.72870 26251 ft 411 kts 135°
2026-05-01 13:41 50.77912 7.75970 26657 ft 414 kts 136°
2026-05-01 13:41 50.75802 7.79083 27052 ft 417 kts 135°
2026-05-01 13:41 50.73673 7.82218 27459 ft 420 kts 136°
2026-05-01 13:41 50.71520 7.85386 27845 ft 423 kts 136°
2026-05-01 13:42 50.69361 7.88558 28250 ft 426 kts 136°
2026-05-01 13:42 50.67184 7.91753 28611 ft 429 kts 136°
2026-05-01 13:42 50.64997 7.94958 28989 ft 431 kts 135°
2026-05-01 13:42 50.62787 7.98191 29358 ft 434 kts 135°
2026-05-01 13:43 50.60568 8.01436 29713 ft 437 kts 135°
2026-05-01 13:43 50.58333 8.04698 30071 ft 439 kts 135°
2026-05-01 13:43 50.56089 8.07969 30401 ft 442 kts 135°
2026-05-01 13:43 50.53823 8.11268 30681 ft 445 kts 135°
2026-05-01 13:44 50.51540 8.14586 30970 ft 447 kts 136°
2026-05-01 13:44 50.49282 8.17861 31241 ft 450 kts 136°
2026-05-01 13:44 50.46942 8.21254 31532 ft 452 kts 136°
2026-05-01 13:44 50.44622 8.24612 31808 ft 454 kts 136°
2026-05-01 13:45 50.42295 8.27975 32079 ft 457 kts 136°
2026-05-01 13:45 50.39946 8.31365 32357 ft 459 kts 136°
2026-05-01 13:45 50.37590 8.34760 32637 ft 461 kts 137°
2026-05-01 13:45 50.35227 8.38161 32880 ft 464 kts 137°
2026-05-01 13:46 50.32844 8.41585 33124 ft 465 kts 137°
2026-05-01 13:46 50.30520 8.44920 33322 ft 464 kts 137°
2026-05-01 13:46 50.28121 8.48359 33563 ft 464 kts 137°
2026-05-01 13:46 50.25758 8.51736 33786 ft 464 kts 137°
2026-05-01 13:47 50.23353 8.55171 34010 ft 464 kts 137°
2026-05-01 13:47 50.20961 8.58583 34246 ft 464 kts 137°
2026-05-01 13:47 50.18582 8.61973 34451 ft 464 kts 137°
2026-05-01 13:47 50.16200 8.65361 34656 ft 464 kts 137°
2026-05-01 13:48 50.13823 8.68738 34858 ft 463 kts 137°
2026-05-01 13:48 50.11430 8.72132 35059 ft 463 kts 137°
2026-05-01 13:48 50.09048 8.75507 35256 ft 463 kts 137°
2026-05-01 13:48 50.06665 8.78878 35457 ft 462 kts 137°
2026-05-01 13:49 50.04278 8.82251 35667 ft 462 kts 137°
2026-05-01 13:49 50.01898 8.85608 35865 ft 462 kts 137°
2026-05-01 13:49 49.99521 8.88956 36074 ft 462 kts 137°
2026-05-01 13:49 49.97162 8.92274 36265 ft 462 kts 137°
2026-05-01 13:50 49.94772 8.95631 36483 ft 462 kts 137°
2026-05-01 13:50 49.92454 8.98886 36686 ft 461 kts 137°
2026-05-01 13:50 49.90010 9.02309 36909 ft 461 kts 137°
2026-05-01 13:50 49.87628 9.05643 37082 ft 461 kts 137°
2026-05-01 13:51 49.85248 9.08969 37239 ft 461 kts 137°
2026-05-01 13:51 49.81289 9.14490 37320 ft 460 kts 137°
2026-05-01 13:52 49.75756 9.22186 37319 ft 459 kts 137°
2026-05-01 13:52 49.71775 9.27711 37319 ft 459 kts 137°
2026-05-01 13:53 49.67010 9.34301 37326 ft 459 kts 137°
2026-05-01 13:53 49.60100 9.44502 37332 ft 458 kts 130°
2026-05-01 13:54 49.55889 9.51787 37327 ft 458 kts 130°
2026-05-01 13:54 49.51661 9.59115 37336 ft 458 kts 130°
2026-05-01 13:55 49.47428 9.66429 37342 ft 457 kts 130°
2026-05-01 13:55 49.43193 9.73730 37345 ft 457 kts 130°
2026-05-01 13:56 49.38944 9.81031 37349 ft 457 kts 130°
2026-05-01 13:56 49.34839 9.88069 37347 ft 457 kts 130°
2026-05-01 13:57 49.30598 9.95316 37347 ft 457 kts 130°
2026-05-01 13:57 49.26337 10.02581 37344 ft 457 kts 130°
2026-05-01 13:58 49.22083 10.09813 37343 ft 457 kts 130°
2026-05-01 13:58 49.17831 10.17019 37349 ft 456 kts 130°
2026-05-01 13:59 49.13581 10.24203 37344 ft 456 kts 130°
2026-05-01 13:59 49.09306 10.31410 37366 ft 456 kts 130°
2026-05-01 14:00 49.05060 10.38549 37364 ft 456 kts 130°
2026-05-01 14:00 49.00787 10.45710 37370 ft 455 kts 130°
2026-05-01 14:01 48.96535 10.52822 37377 ft 455 kts 130°
2026-05-01 14:01 48.92273 10.59926 37371 ft 455 kts 130°
2026-05-01 14:02 48.87994 10.67042 37362 ft 455 kts 130°
2026-05-01 14:02 48.83743 10.74091 37353 ft 455 kts 130°
2026-05-01 14:03 48.79463 10.81168 37355 ft 455 kts 130°
2026-05-01 14:03 48.75181 10.88231 37341 ft 454 kts 130°
2026-05-01 14:04 48.70897 10.95277 37352 ft 454 kts 130°
2026-05-01 14:04 48.66610 11.02310 37341 ft 454 kts 130°
2026-05-01 14:05 48.62341 11.09294 37342 ft 454 kts 130°
2026-05-01 14:05 48.58047 11.16299 37344 ft 454 kts 130°
2026-05-01 14:06 48.53754 11.23285 37344 ft 454 kts 130°
2026-05-01 14:06 48.49441 11.30285 37338 ft 455 kts 130°
2026-05-01 14:07 48.45131 11.37261 37341 ft 454 kts 130°
2026-05-01 14:08 48.38860 11.47377 37344 ft 455 kts 130°
2026-05-01 14:08 48.34525 11.54352 37350 ft 455 kts 130°
2026-05-01 14:09 48.30196 11.61299 37345 ft 455 kts 130°
2026-05-01 14:09 48.25904 11.68275 37350 ft 454 kts 128°
2026-05-01 14:10 48.21730 11.75389 37344 ft 454 kts 128°
2026-05-01 14:10 48.17487 11.82322 37342 ft 456 kts 136°
2026-05-01 14:11 48.12743 11.88640 37342 ft 456 kts 135°
2026-05-01 14:11 48.05597 11.98055 37342 ft 456 kts 136°
2026-05-01 14:12 48.00814 12.04331 37341 ft 457 kts 136°
2026-05-01 14:12 47.96068 12.10543 37335 ft 457 kts 136°
2026-05-01 14:13 47.92065 12.15770 37330 ft 457 kts 136°
2026-05-01 14:13 47.86489 12.23030 37330 ft 457 kts 136°
2026-05-01 14:14 47.81697 12.29254 37329 ft 457 kts 136°
2026-05-01 14:14 47.76904 12.35464 37314 ft 457 kts 136°
2026-05-01 14:15 47.72224 12.41511 37337 ft 457 kts 135°
2026-05-01 14:15 47.67413 12.47711 37315 ft 457 kts 135°
2026-05-01 14:16 47.62580 12.53856 37316 ft 459 kts 138°
2026-05-01 14:16 47.57563 12.59708 37334 ft 458 kts 138°
2026-05-01 14:17 47.52571 12.65574 37224 ft 458 kts 138°
2026-05-01 14:17 47.50061 12.68522 37360 ft 458 kts 138°
2026-05-01 14:17 47.47585 12.71426 37311 ft 459 kts 138°
2026-05-01 14:18 47.42562 12.77306 37362 ft 460 kts 138°
2026-05-01 14:18 47.38389 12.82180 37313 ft 459 kts 138°
2026-05-01 14:19 47.32558 12.88972 37327 ft 459 kts 137°
2026-05-01 14:19 47.27526 12.94818 37313 ft 459 kts 137°
2026-05-01 14:20 47.20017 13.03517 37318 ft 459 kts 137°
2026-05-01 14:21 47.14991 13.09320 37317 ft 460 kts 137°
2026-05-01 14:21 47.09957 13.15119 37306 ft 460 kts 137°
2026-05-01 14:22 47.02383 13.23814 37284 ft 461 kts 138°
2026-05-01 14:22 46.97333 13.29596 37269 ft 460 kts 138°
2026-05-01 14:23 46.92287 13.35358 37286 ft 461 kts 137°
2026-05-01 14:23 46.87222 13.41128 37336 ft 462 kts 137°
2026-05-01 14:24 46.82193 13.46845 37342 ft 460 kts 137°
2026-05-01 14:24 46.77077 13.52486 37318 ft 462 kts 142°
2026-05-01 14:25 46.71732 13.57721 37313 ft 462 kts 141°
2026-05-01 14:25 46.66413 13.63003 37327 ft 462 kts 141°
2026-05-01 14:26 46.58429 13.70924 37329 ft 462 kts 141°
2026-05-01 14:27 46.53105 13.76192 37337 ft 463 kts 141°
2026-05-01 14:27 46.47810 13.81417 37338 ft 463 kts 141°
2026-05-01 14:28 46.39803 13.89292 37336 ft 463 kts 141°
2026-05-01 14:28 46.34464 13.94530 37331 ft 464 kts 141°
2026-05-01 14:29 46.29118 13.99760 37329 ft 464 kts 141°
2026-05-01 14:30 46.18585 14.10431 37322 ft 463 kts 137°
2026-05-01 14:31 46.10848 14.18790 37324 ft 463 kts 138°
2026-05-01 14:31 46.05674 14.24335 37314 ft 463 kts 138°
2026-05-01 14:32 46.00503 14.29867 37323 ft 464 kts 138°
2026-05-01 14:32 45.95318 14.35397 37323 ft 464 kts 138°
2026-05-01 14:33 45.90124 14.40925 37319 ft 465 kts 137°
2026-05-01 14:33 45.84928 14.46442 37315 ft 464 kts 137°
2026-05-01 14:34 45.79720 14.51958 37322 ft 464 kts 137°
2026-05-01 14:34 45.74514 14.57458 37326 ft 464 kts 137°
2026-05-01 14:35 45.69340 14.62913 37331 ft 465 kts 137°
2026-05-01 14:35 45.64129 14.68393 37327 ft 465 kts 137°
2026-05-01 14:36 45.58926 14.73854 37317 ft 464 kts 137°
2026-05-01 14:36 45.53715 14.79309 37317 ft 464 kts 137°
2026-05-01 14:37 45.48495 14.84758 37315 ft 464 kts 137°
2026-05-01 14:37 45.42950 14.89484 37305 ft 470 kts 146°
2026-05-01 14:38 45.38114 14.93166 37318 ft 471 kts 146°
2026-05-01 14:38 45.31380 14.98253 37312 ft 472 kts 146°
2026-05-01 14:39 45.26552 15.01891 37316 ft 472 kts 146°
2026-05-01 14:39 45.20748 15.06254 37321 ft 473 kts 146°
2026-05-01 14:40 45.14943 15.10610 37313 ft 472 kts 146°
2026-05-01 14:40 45.09115 15.14970 37316 ft 473 kts 146°
2026-05-01 14:41 45.03294 15.19317 37308 ft 473 kts 146°
2026-05-01 14:41 44.97450 15.23671 37306 ft 474 kts 146°
2026-05-01 14:42 44.91614 15.28007 37302 ft 474 kts 146°
2026-05-01 14:42 44.85807 15.32313 37301 ft 474 kts 146°
2026-05-01 14:43 44.79974 15.36629 37311 ft 474 kts 146°
2026-05-01 14:43 44.74126 15.40945 37301 ft 474 kts 146°
2026-05-01 14:44 44.68275 15.45252 37300 ft 474 kts 146°
2026-05-01 14:44 44.59512 15.51687 37294 ft 474 kts 146°
2026-05-01 14:45 44.50787 15.58071 37294 ft 473 kts 146°
2026-05-01 14:46 44.44941 15.62337 37285 ft 474 kts 146°
2026-05-01 14:46 44.36149 15.68734 37286 ft 475 kts 146°
2026-05-01 14:47 44.30274 15.72997 37276 ft 476 kts 147°
2026-05-01 14:48 44.21437 15.79390 37259 ft 476 kts 147°
2026-05-01 14:48 44.12603 15.85760 37263 ft 477 kts 147°
2026-05-01 14:49 44.00841 15.94207 37247 ft 477 kts 148°
2026-05-01 14:50 43.89058 16.02635 37233 ft 475 kts 149°
2026-05-01 14:51 43.80247 16.08894 37230 ft 474 kts 149°
2026-05-01 14:52 43.71438 16.15134 37219 ft 474 kts 149°
2026-05-01 14:53 43.62672 16.21322 37214 ft 474 kts 150°
2026-05-01 14:53 43.56801 16.25455 37214 ft 474 kts 150°
2026-05-01 14:54 43.50911 16.29593 37222 ft 476 kts 150°
2026-05-01 14:54 43.44847 16.33352 37212 ft 478 kts 153°
2026-05-01 14:55 43.38772 16.37114 37213 ft 479 kts 153°
2026-05-01 14:55 43.32680 16.40887 37211 ft 480 kts 153°
2026-05-01 14:56 43.26585 16.44655 37208 ft 481 kts 153°
2026-05-01 14:56 43.20510 16.48401 37198 ft 482 kts 153°
2026-05-01 14:57 43.14398 16.52163 37200 ft 482 kts 153°
2026-05-01 14:57 43.05196 16.57780 37194 ft 481 kts 154°
2026-05-01 14:58 42.99081 16.61498 37200 ft 481 kts 154°
2026-05-01 14:58 42.93037 16.65165 37197 ft 480 kts 154°
2026-05-01 14:59 42.86866 16.68901 37194 ft 480 kts 154°
2026-05-01 14:59 42.80828 16.72548 37197 ft 480 kts 154°
2026-05-01 15:00 42.71631 16.78088 37195 ft 480 kts 155°
2026-05-01 15:01 42.65515 16.81763 37193 ft 480 kts 155°
2026-05-01 15:01 42.59390 16.85435 37188 ft 481 kts 155°
2026-05-01 15:02 42.53265 16.89099 37192 ft 482 kts 155°
2026-05-01 15:02 42.47134 16.92759 37181 ft 483 kts 155°
2026-05-01 15:03 42.40973 16.96428 37184 ft 484 kts 155°
2026-05-01 15:03 42.34789 17.00105 37183 ft 484 kts 156°
2026-05-01 15:04 42.28618 17.03764 37182 ft 484 kts 156°
2026-05-01 15:04 42.22453 17.07412 37178 ft 484 kts 156°
2026-05-01 15:05 42.16271 17.11063 37175 ft 485 kts 156°
2026-05-01 15:05 42.10121 17.14687 37175 ft 485 kts 156°
2026-05-01 15:06 42.03936 17.18324 37172 ft 485 kts 156°
2026-05-01 15:06 41.97750 17.21954 37170 ft 485 kts 157°
2026-05-01 15:07 41.91657 17.25830 37165 ft 484 kts 147°
2026-05-01 15:07 41.86063 17.30668 37170 ft 486 kts 148°
2026-05-01 15:08 41.80273 17.35636 37166 ft 486 kts 148°
2026-05-01 15:08 41.74575 17.40519 37167 ft 486 kts 148°
2026-05-01 15:09 41.68911 17.45363 37164 ft 486 kts 148°
2026-05-01 15:09 41.63217 17.50222 37160 ft 486 kts 148°
2026-05-01 15:10 41.57517 17.55077 37159 ft 485 kts 148°
2026-05-01 15:10 41.48963 17.62342 37158 ft 486 kts 148°
2026-05-01 15:11 41.40398 17.69595 37160 ft 486 kts 149°
2026-05-01 15:12 41.34714 17.74395 37156 ft 486 kts 149°
2026-05-01 15:12 41.26141 17.81615 37154 ft 486 kts 149°
2026-05-01 15:14 41.11843 17.93607 37148 ft 486 kts 150°
2026-05-01 15:14 41.03241 18.00792 37141 ft 487 kts 150°
2026-05-01 15:15 40.91791 18.10320 37142 ft 488 kts 150°
2026-05-01 15:16 40.80263 18.19875 37144 ft 489 kts 150°
2026-05-01 15:18 40.65791 18.31813 37131 ft 491 kts 151°
2026-05-01 15:19 40.54185 18.41340 37121 ft 491 kts 151°
2026-05-01 15:19 40.45511 18.48435 37126 ft 491 kts 152°
2026-05-01 15:20 40.36793 18.55544 37113 ft 492 kts 152°
2026-05-01 15:21 40.30974 18.60278 37105 ft 492 kts 152°
2026-05-01 15:21 40.25154 18.65002 37094 ft 492 kts 152°
2026-05-01 15:22 40.16420 18.72074 37090 ft 492 kts 152°
2026-05-01 15:22 40.10627 18.76752 37079 ft 492 kts 152°
2026-05-01 15:23 40.04792 18.81454 37072 ft 493 kts 153°
2026-05-01 15:23 39.98964 18.86144 37071 ft 493 kts 153°
2026-05-01 15:24 39.93117 18.90840 37068 ft 493 kts 153°
2026-05-01 15:24 39.87274 18.95523 37067 ft 493 kts 153°
2026-05-01 15:25 39.82452 18.99490 37048 ft 496 kts 146°
2026-05-01 15:25 39.79956 19.02629 37068 ft 502 kts 134°
2026-05-01 15:25 39.77631 19.06030 37045 ft 503 kts 135°
2026-05-01 15:26 39.72969 19.12834 37056 ft 504 kts 135°
2026-05-01 15:26 39.68325 19.19659 37054 ft 504 kts 135°
2026-05-01 15:27 39.63674 19.26483 37052 ft 505 kts 135°
2026-05-01 15:28 39.56681 19.36715 37054 ft 505 kts 135°
2026-05-01 15:28 39.52041 19.43485 37053 ft 505 kts 135°
2026-05-01 15:29 39.45024 19.53696 37053 ft 506 kts 136°
2026-05-01 15:30 39.35642 19.67292 37045 ft 507 kts 136°
2026-05-01 15:31 39.26178 19.80939 35569 ft 514 kts 137°
2026-05-01 15:31 39.21418 19.87781 34529 ft 507 kts 138°
2026-05-01 15:32 39.16719 19.94524 33320 ft 513 kts 138°
2026-05-01 15:32 39.11929 20.01378 32273 ft 515 kts 139°
2026-05-01 15:33 39.04795 20.11561 30654 ft 505 kts 139°
2026-05-01 15:34 38.97776 20.21544 28864 ft 495 kts 138°